Binghamton, NY

6:33 PM EST on December 14, 2019 (GMT -0500)
Binghamton Regional-Link

Weather History for KBGM - May, 2019

Change the Weather History Date:

Thursday, May 30, 2019

  Actual Average Record
Temperature  
Mean Temperature 60 °F 60 °F  
Max Temperature 65 °F 70 °F 88 °F (1987)
Min Temperature 54 °F 51 °F 35 °F (1961)
Degree Days  
Heating Degree Days 5 6  
Month to date heating degree days 285 299  
Since 1 July heating degree days 7075 7098  
Cooling Degree Days 0 1  
Month to date cooling degree days 7 18  
Year to date cooling degree days 7 22  
Growing Degree Days 9 (Base 50)    
Moisture  
Dew Point 56 °F    
Average Humidity 86    
Maximum Humidity 100    
Minimum Humidity 72    
Precipitation  
Precipitation 0.13 in 0.13 in 1.08 in (2017)
Month to date precipitation 5.24 3.44  
Year to date precipitation 16.72 14.62  
Snow  
Snow 0.00 in 0.00 in 0.00 in (2002)
Month to date snowfall 0.0 0.1  
Since 1 July snowfall 81.4 83.4  
Snow Depth 0.00 in    
Sea Level Pressure  
Sea Level Pressure 29.74 in    
Wind  
Wind Speed 6 mph (West)    
Max Wind Speed 18 mph    
Max Gust Speed 22 mph    
Visibility 8 miles    
Events Rain    
T = Trace of Precipitation, MM = Missing Value Source: NWS Daily Summary

Daily Weather History Graph

Daily Weather History Graph

Search for Another Location

Airport or City:

Astronomy

May. 30, 2019 Rise Set
Actual Time 5:31 AM EDT 8:32 PM EDT
Civil Twilight 4:57 AM EDT 9:05 PM EDT
Nautical Twilight 4:15 AM EDT 9:48 PM EDT
Astronomical Twilight 3:24 AM EDT 10:39 PM EDT
Moon 3:42 AM EDT (5/30) 4:32 PM EDT (5/30)
Length of Visible Light 16h 07m
Length of Day
15h 00m
Waning Crescent, 15% of the Moon is Illuminated
May 30
Waning Crescent
Jun 3
New
Jun 10
First Quarter
Jun 17
Full
Jun 25
Last Quarter

Hourly Weather History & Observations

Time (EDT) Temp. Dew Point Humidity Pressure Visibility Wind Dir Wind Speed Gust Speed Precip Events Conditions
12:53 AM 57.0 °F 54.0 °F 89% 29.76 in 10.0 mi North 6.9 mph - N/A   Overcast
1:53 AM 55.9 °F 53.1 °F 90% 29.76 in 10.0 mi NNW 8.1 mph - N/A   Overcast
2:37 AM 55.0 °F 53.1 °F 93% 29.78 in 8.0 mi NNW 6.9 mph - N/A   Overcast
2:53 AM 55.0 °F 53.1 °F 93% 29.77 in 10.0 mi NW 5.8 mph - N/A   Overcast
3:13 AM 55.0 °F 53.1 °F 93% 29.78 in 8.0 mi NW 6.9 mph - N/A   Overcast
3:40 AM 54.0 °F 53.1 °F 97% 29.77 in 2.5 mi NNW 4.6 mph - N/A   Overcast
3:50 AM 53.6 °F 53.6 °F 100% 29.77 in 3.0 mi NNW 4.6 mph - N/A   Overcast
3:53 AM 54.0 °F 53.1 °F 97% 29.76 in 4.0 mi NW 4.6 mph - N/A   Overcast
4:18 AM 54.0 °F 53.1 °F 97% 29.77 in 4.0 mi NW 5.8 mph - N/A   Overcast
4:26 AM 54.0 °F 53.1 °F 97% 29.78 in 3.0 mi NW 5.8 mph - N/A   Overcast
4:40 AM 54.0 °F 53.1 °F 97% 29.78 in 2.5 mi WNW 5.8 mph - N/A   Overcast
4:53 AM 54.0 °F 53.1 °F 97% 29.78 in 2.0 mi NW 4.6 mph - N/A   Overcast
5:21 AM 54.0 °F 53.1 °F 97% 29.78 in 3.0 mi Calm Calm - N/A   Overcast
5:36 AM 54.0 °F 53.1 °F 97% 29.78 in 6.0 mi Calm Calm - N/A   Overcast
5:51 AM 53.6 °F 53.6 °F 100% 29.78 in 10.0 mi Calm Calm - N/A   Overcast
5:53 AM 54.0 °F 53.1 °F 97% 29.78 in 10.0 mi NW 3.5 mph - N/A   Overcast
6:53 AM 54.0 °F 52.0 °F 93% 29.79 in 8.0 mi West 5.8 mph - N/A   Overcast
7:53 AM 55.0 °F 52.0 °F 89% 29.80 in 10.0 mi West 5.8 mph - N/A   Overcast
8:04 AM 55.0 °F 52.0 °F 89% 29.81 in 10.0 mi West 5.8 mph - N/A   Overcast
8:28 AM 55.9 °F 50.0 °F 80% 29.81 in 10.0 mi West 3.5 mph - N/A   Scattered Clouds
8:53 AM 57.9 °F 51.1 °F 78% 29.80 in 10.0 mi WNW 6.9 mph - N/A   Scattered Clouds
9:53 AM 60.1 °F 51.1 °F 72% 29.78 in 10.0 mi WNW 5.8 mph - N/A   Clear
10:53 AM 60.1 °F 53.1 °F 78% 29.78 in 10.0 mi SW 5.8 mph - N/A   Mostly Cloudy
11:51 AM 60.8 °F 53.6 °F 77% 29.78 in 10.0 mi WSW 4.6 mph - N/A   Scattered Clouds
11:53 AM 60.1 °F 53.1 °F 78% 29.78 in 10.0 mi SW 5.8 mph - N/A   Scattered Clouds
12:02 PM 60.1 °F 54.0 °F 80% 29.78 in 10.0 mi SSW 6.9 mph - N/A   Mostly Cloudy
12:42 PM 61.0 °F 55.0 °F 81% 29.78 in 10.0 mi SSW 3.5 mph - 0.00 in Rain Light Rain
12:53 PM 61.0 °F 55.0 °F 81% 29.76 in 10.0 mi South 5.8 mph - 0.00 in Rain Light Rain
1:53 PM 61.0 °F 57.0 °F 87% 29.74 in 7.0 mi SSE 5.8 mph - 0.01 in Rain Light Rain
2:17 PM 62.1 °F 59.0 °F 90% 29.72 in 10.0 mi SSE 8.1 mph - 0.00 in   Overcast
2:29 PM 62.1 °F 59.0 °F 90% 29.73 in 10.0 mi SSE 4.6 mph - 0.00 in   Overcast
2:42 PM 62.1 °F 59.0 °F 90% 29.73 in 10.0 mi South 5.8 mph - 0.00 in   Overcast
2:53 PM 62.1 °F 59.0 °F 90% 29.72 in 10.0 mi South 4.6 mph - 0.00 in   Overcast
3:01 PM 63.0 °F 60.1 °F 90% 29.73 in 10.0 mi Variable 4.6 mph - N/A   Overcast
3:15 PM 64.0 °F 60.1 °F 87% 29.72 in 10.0 mi South 5.8 mph - N/A   Overcast
3:53 PM 64.0 °F 60.1 °F 87% 29.69 in 10.0 mi South 5.8 mph - N/A   Overcast
4:22 PM 64.0 °F 60.1 °F 87% 29.69 in 10.0 mi SW 4.6 mph - N/A   Overcast
4:42 PM 64.9 °F 61.0 °F 87% 29.69 in 10.0 mi SW 4.6 mph - N/A   Overcast
4:53 PM 64.9 °F 61.0 °F 87% 29.67 in 10.0 mi SSW 9.2 mph - N/A   Overcast
5:53 PM 64.9 °F 61.0 °F 87% 29.66 in 10.0 mi SW 5.8 mph - N/A   Overcast
6:53 PM 64.0 °F 60.1 °F 87% 29.65 in 10.0 mi South 5.8 mph - N/A   Overcast
7:11 PM 64.0 °F 60.1 °F 87% 29.68 in 2.0 mi NNW 18.4 mph 21.9 mph 0.01 in Rain Rain
7:16 PM 62.1 °F 60.1 °F 93% 29.68 in 1.2 mi NW 9.2 mph 21.9 mph 0.09 in Rain Heavy Rain
7:22 PM 62.1 °F 60.1 °F 93% 29.68 in 3.0 mi NNW 8.1 mph - 0.10 in Rain Light Rain
7:44 PM 61.0 °F 60.1 °F 97% 29.68 in 10.0 mi NNW 6.9 mph - 0.10 in   Overcast
7:53 PM 61.0 °F 59.0 °F 93% 29.68 in 10.0 mi NNW 11.5 mph - 0.10 in Rain Light Rain
8:53 PM 60.1 °F 57.9 °F 93% 29.67 in 10.0 mi Calm Calm - 0.02 in   Overcast
9:53 PM 59.0 °F 57.9 °F 96% 29.70 in 10.0 mi WSW 5.8 mph - 0.00 in Rain Light Rain
10:07 PM 59.0 °F 57.9 °F 96% 29.70 in 5.0 mi WSW 3.5 mph - 0.00 in   Overcast
10:53 PM 59.0 °F 57.9 °F 96% 29.70 in 10.0 mi SW 4.6 mph - 0.00 in   Mostly Cloudy
11:41 PM 59.0 °F 57.9 °F 96% 29.69 in 10.0 mi Calm Calm - N/A   Overcast
11:53 PM 59.0 °F 57.9 °F 96% 29.68 in 10.0 mi NNW 3.5 mph - 0.00 in Rain Light Rain